Starlink 34839

operational
NORAD ID: 65703 Int'l Des: 2025-212 Owner: SPXS Country: US Constellation: starlink
LEOCIRCULAR

Über Starlink 34839

Beschreibung wird geladen...

Live-Position

3D-Globus wird geladen...

Nächste Überflüge

Höhenverlauf

Altitude vs Time

uPlot chart will show altitude changes over time

Zweizeiliger Elementsatz

1 65703U 25212AD 26061.09758528 .00033778 00000-0 11468-2 0 9992
2 65703 53.1599 20.7570 0000952 83.9260 276.1849 15.30216767 26081
Epoch: 2. März 2026 • Age: 23 hours

Aktueller Status

Höhe 475.1 km
Geschwindigkeit 7.63 km/s
Subsatellitenpunkt 17.16°N, 31.49°E
Startdatum 21. Sept. 2025
Alter 0.4 years
Typ internet

Technische Details

Klassifizierung Payload
Masse 575.00 kg
Trockenmasse 530.00 kg
Gesamtmasse 575.00 kg
Länge 0.30 m
Durchmesser 4.10 m
Spannweite 29.00 m
Form Box + pan
Hersteller SPXS
Bus-Typ Starlink V2MO
Phasenstatus In Orbit
Besitzer/Staat SPXS/US

Große Konstellationen

Loading constellations...